Location: Hammond
(31.0949°N, 96.7148°W)
Time: 05:53:31
(UTC+00:00)

Tiangong - Visible Passes

Search period start: 17 February 2026 00:00
Search period end: 27 February 2026 00:00
Orbit: 386 x 391 km, 41.5° (Epoch: 16 February)

Date Brightness Start Highest point End Pass type
(mag) Time Alt. Az. Time Alt. Az. Time Alt. Az.
17 Feb 0.2 01:20:36 10° NNW 01:22:13 13° N 01:22:55 12° NNE visible
18 Feb 0.5 01:58:40 10° NW 01:59:37 15° NNW 01:59:37 15° NNW visible
19 Feb 0.0 01:00:20 10° NNW 01:02:22 16° NNE 01:04:00 12° NE visible
20 Feb -0.9 01:38:10 10° NW 01:40:42 30° N 01:40:42 30° N visible
21 Feb -0.4 00:39:43 10° NW 00:42:14 21° NNE 00:44:45 10° ENE visible
21 Feb 0.4 02:16:12 10° WNW 02:17:27 21° WNW 02:17:27 21° WNW visible
22 Feb -2.0 01:17:31 10° NW 01:20:39 58° NNE 01:21:58 30° E visible
23 Feb -0.6 01:55:51 10° W 01:58:41 30° SW 01:58:53 29° SSW visible
24 Feb -1.7 00:56:48 10° WNW 00:59:57 63° SSW 01:03:05 10° SE visible
25 Feb 0.8 01:35:56 10° WSW 01:37:41 14° SW 01:39:26 10° S visible
